CAPE
5 3 3 2 2 1 2 2 2 0 0 0 0 0 0 0 0 0 0 0 0 0 0 0 0 0 0 0 0 0 0 0 0 0 0 0 0 0 0 0 0 0 0 0 1
5 4 4 2 2 1 0 0 1 1 0 0 0 0 0 0 0 0 0 0 0 0 0 0 0 0 0 0 0 0 0 0 0 0 0 0 0 0 0 0 0 0 0 0 0
8 2 6 4 4 3 2 1 1 0 0 0 0 0 0 0 0 0 0 0 0 0 0 0 0 0 0 0 0 0 0 0 0 0 0 0 0 0 0 0 0 0 0 0 0
6 3 4 3 1 1 1 1 1 1 0 0 0 0 0 0 0 0 0 0 0 0 0 0 0 0 0 0 0 0 0 0 0 0 0 0 0 0 0 0 0 0 0 0 0
2 3 1 0 0 0 0 0 0 0 1 2 2 5 1 0 0 0 0 0 0 0 0 0 0 0 0 0 0 0 0 0 0 0 0 0 0 0 0 0 0 0 0 0 0
1 1 0 0 0 0 0 0 0 0 1 2 3 4 0 0 0 0 0 0 0 0 0 0 0 0 0 0 0 0 0 0 0 0 0 0 0 0 0 0 0 0 0 0 0
0 0 0 0 0 0 0 0 0 0 4 4 4 4 3 0 0 0 0 0 0 0 0 0 0 0 0 0 0 0 0 0 0 0 0 0 0 0 0 0 0 0 0 0 0
2 0 0 1 1 0 0 0 0 0 3 4 4 1 0 0 0 0 0 0 0 0 0 0 0 0 0 0 0 0 0 0 0 0 0 0 0 0 0 0 0 0 0 0 0
3 0 1 0 1 1 0 0 0 0 0 0 0 0 0 0 0 0 0 0 0 0 0 0 0 0 0 0 0 0 0 0 0 0 0 0 0 0 0 0 0 0 0 0 0
2 0 0 4 2 0 0 0 0 0 0 0 0 0 0 0 0 0 0 0 0 0 0 0 0 0 0 0 0 0 0 0 0 0 0 0 0 0 0 0 0 0 0 0 0
1 0 1 1 0 0 0 0 0 0 0 0 0 0 0 0 0 0 0 0 0 0 0 0 0 0 0 0 0 0 0 0 0 0 0 0 0 0 0 0 0 0 0 0 0
1 0 0 0 0 0 0 0 0 0 0 0 0 0 0 0 0 0 0 0 0 0 0 0 0 0 0 0 0 0 0 0 0 0 0 0 0 0 0 0 0 0 0 0 0
0 0 0 0 0 0 0 0 0 0 0 0 0 1 0 0 0 0 0 0 0 0 0 0 0 0 0 0 0 0 0 0 0 0 0 0 0 0 0 0 0 0 0 0 0
0 0 0 1 0 0 0 0 0 0 0 0 1 0 0 0 0 0 0 0 0 0 0 0 0 0 0 0 0 0 0 0 0 0 0 0 0 0 0 0 0 0 0 0 0
0 0 0 0 0 0 0 0 0 0 0 0 2 8 1 14 1 2 18 37 0 0 0 0 0 0 0 0 0 0 0 0 0 0 0 0 0 0 0 0 0 0 0 0 0
0 0 0 0 0 0 0 0 0 0 0 0 0 0 0 0 0 3 0 0 0 3 0 0 0 0 0 0 0 0 0 0 0 0 0 0 0 0 0 0 0 0 0 0 0
0 0 0 0 0 0 0 0 0 0 0 0 0 0 0 0 0 0 0 0 0 0 2 21 8 0 0 0 0 0 0 0 0 0 0 0 0 0 0 0 0 0 0 0 0
0 0 0 0 0 0 0 0 0 0 0 0 3 0 0 1 0 0 0 0 2 1 0 0 0 0 7 0 0 0 0 0 0 0 0 0 0 0 0 0 0 0 0 0 0
0 0 0 0 0 0 0 0 0 3 0 10 0 0 0 26 5 0 0 0 22 0 0 13 0 1 0 0 0 0 0 0 0 0 0 0 0 0 0 0 0 0 0 0 1
0 0 0 0 0 0 0 0 1 5 3 6 0 5 0 3 0 0 2 4 1 0 0 0 0 0 0 0 0 0 0 0 0 0 0 0 0 0 0 0 0 0 0 8 169
0 0 0 0 0 0 0 0 0 1 26 6 11 5 1 5 1 0 3 0 1 0 0 0 0 0 0 0 0 0 0 0 0 0 0 0 0 0 0 0 0 0 0 90 202
0 0 0 0 0 0 1 0 1 0 14 18 8 0 1 10 0 8 3 0 0 3 0 0 0 0 0 0 0 0 0 0 0 0 0 0 0 0 0 0 0 0 0 239 215
0 0 0 0 1 0 0 0 0 0 0 5 0 2 0 2 6 1 4 3 0 0 0 2 0 0 0 0 2 4 1 0 0 0 0 0 0 0 0 0 0 0 180 240 261
0 0 0 0 0 0 0 0 1 0 0 1 1 0 0 0 0 1 0 0 0 5 32 2 0 0 0 0 0 8 6 0 0 0 0 0 0 0 0 0 0 154 226 241 314
0 0 0 0 0 0 0 0 3 14 1 0 0 3 8 5 0 0 1 0 0 4 13 4 0 0 0 0 1 0 0 0 0 0 0 0 0 0 0 0 0 161 260 305 323
0 0 0 0 0 0 0 0 1 2 6 0 5 0 0 3 1 2 4 0 0 0 0 0 0 6 1 0 3 0 0 0 0 0 0 0 0 0 0 0 85 232 296 344 338
0 1 5 0 0 2 0 0 0 8 0 11 14 3 0 0 2 0 0 0 0 0 0 1 0 0 0 0 45 0 0 0 0 0 0 0 0 0 0 118 227 208 353 348 363
CIN
-0 -0 -0 -0 -0 -0 -0 -0 -0 -0 -0 -0 -0 -0 -0 -0 -0 -0 -0 -0 -0 -0 -0 -0 -0 -0 -0 -0 -0 -0 -0 -0 -0 -0 -0 -0 -0 -0 -0 -0 -0 -0 -0 -0 -15
-0 -0 -0 -0 -0 -0 -0 -0 -0 -0 -0 -0 -0 -0 -0 -0 -0 -0 -0 -0 -0 -0 -0 -0 -0 -0 -0 -0 -0 -0 -0 -0 -0 -0 -0 -0 -0 -0 -0 -0 -0 -0 -0 -10 -0
-0 -0 -0 -0 -0 -0 -0 -0 -0 -0 -0 -0 -0 -0 -0 -0 -0 -0 -0 -0 -0 -0 -0 -0 -0 -0 -0 -0 -0 -0 -0 -0 -0 -0 -0 -0 -0 -0 -0 -0 -0 -0 -0 -0 -0
-0 -0 -0 -0 -0 -0 -0 -0 -0 -0 -0 -0 -0 -0 -0 -0 -0 -0 -0 -0 -0 -0 -0 -0 -0 -0 -0 -0 -0 -0 -0 -0 -0 -0 -0 -0 -0 -0 -0 -0 -0 -0 -0 -0 -0
-0 -0 -0 -0 -0 -0 -0 -0 -0 -0 -0 -0 -0 -0 -0 -0 -0 -0 -0 -0 -0 -0 -0 -0 -0 -0 -0 -0 -0 -0 -0 -0 -0 -0 -0 -0 -0 -0 -0 -0 -0 -0 -0 -0 -0
-0 -0 -0 -0 -0 -0 -0 -0 -0 -0 -0 -0 -0 -0 -0 -0 -0 -0 -0 -0 -0 -0 -0 -0 -0 -0 -0 -0 -0 -0 -0 -0 -0 -0 -0 -0 -0 -0 -0 -0 -0 -0 -0 -0 -0
-0 -0 -0 -0 -0 -0 -0 -0 -0 -0 -0 -0 -0 -0 -0 -0 -0 -0 -0 -0 -0 -0 -0 -0 -0 -0 -0 -0 -0 -0 -0 -0 -0 -0 -0 -0 -0 -0 -0 -0 -0 -0 -0 -0 -0
-0 -0 -0 -0 -0 -0 -0 -0 -0 -0 -0 -0 -0 -1 -0 -0 -0 -0 -0 -0 -0 -0 -0 -0 -0 -0 -0 -0 -0 -0 -0 -0 -0 -0 -0 -0 -0 -0 -0 -0 -0 -0 -0 -0 -0
-0 -0 -0 -0 -0 -0 -0 -0 -0 -0 -0 -0 -0 -0 -0 -0 -0 -0 -0 -0 -0 -0 -0 -0 -0 -0 -0 -0 -0 -0 -0 -0 -0 -0 -0 -0 -0 -0 -0 -0 -0 -0 -0 -0 -0
-0 -0 -0 -0 -0 -0 -0 -0 -0 -0 -0 -0 -0 -0 -0 -0 -0 -0 -0 -0 -0 -0 -0 -0 -0 -0 -0 -0 -0 -0 -0 -0 -0 -0 -0 -0 -0 -0 -0 -0 -0 -0 -0 -0 -0
-0 -0 -0 -0 -0 -0 -0 -0 -0 -0 -0 -0 -0 -0 -0 -0 -0 -0 -0 -0 -0 -0 -0 -0 -0 -0 -0 -0 -0 -0 -0 -0 -0 -0 -0 -0 -0 -0 -0 -0 -0 -0 -0 -0 -0
-0 -0 -0 -0 -0 -0 -0 -0 -0 -0 -0 -0 -0 -0 -0 -0 -0 -0 -0 -0 -0 -0 -0 -0 -0 -0 -0 -0 -0 -0 -0 -0 -0 -0 -0 -0 -0 -0 -0 -0 -0 -0 -0 -0 -0
-0 -0 -0 -0 -0 -0 -0 -0 -0 -0 -0 -0 -0 -28 -0 -0 -0 -0 -0 -0 -0 -0 -0 -0 -0 -0 -0 -0 -0 -0 -0 -0 -0 -0 -0 -0 -0 -0 -0 -0 -0 -0 -0 -0 -0
-0 -0 -0 -0 -0 -0 -0 -0 -0 -0 -0 -0 -6 -0 -0 -0 -0 -0 -0 -0 -0 -0 -0 -0 -0 -0 -0 -0 -0 -0 -0 -0 -0 -0 -0 -0 -0 -0 -0 -0 -0 -0 -0 -0 -0
-0 -0 -0 -0 -0 -0 -0 -0 -0 -0 -0 -0 -6 -22 -13 -23 -9 -15 -5 -13 -0 -0 -0 -0 -0 -0 -0 -0 -0 -0 -0 -0 -0 -0 -0 -0 -0 -0 -0 -0 -0 -0 -0 -0 -0
-0 -0 -0 -0 -0 -0 -0 -0 -0 -0 -0 -0 -0 -0 -0 -0 -0 -21 -0 -0 -0 -4 -0 -0 -0 -0 -0 -0 -0 -0 -0 -0 -0 -0 -0 -0 -0 -0 -0 -0 -0 -0 -0 -0 -0
-0 -0 -0 -0 -0 -0 -0 -0 -0 -0 -0 -0 -0 -0 -0 -0 -0 -0 -0 -0 -0 -12 -2 -4 -3 -0 -0 -0 -0 -0 -0 -0 -0 -0 -0 -0 -0 -0 -0 -0 -0 -0 -0 -0 -0
-0 -0 -0 -0 -0 -0 -0 -0 -0 -0 -0 -0 -39 -0 -0 -20 -0 -0 -0 -0 -13 -9 -0 -0 -0 -0 -1 -0 -0 -0 -0 -0 -0 -0 -0 -0 -0 -0 -0 -0 -0 -0 -0 -0 -0
-0 -0 -0 -0 -0 -0 -0 -0 -0 -5 -2 -1 -8 -0 -22 -19 -11 -0 -0 -29 -47 -19 -0 -7 -0 -34 -0 -0 -0 -0 -0 -0 -0 -0 -0 -0 -0 -0 -0 -0 -0 -0 -0 -0 -49
-0 -0 -0 -0 -0 -0 -0 -0 -3 -13 -2 -16 -0 -26 -0 -26 -36 -14 -65 -44 -39 -9 -0 -0 -0 -0 -0 -0 -0 -0 -0 -0 -0 -0 -0 -0 -0 -0 -0 -0 -0 -0 -0 -88 -344
-0 -0 -0 -0 -0 -0 -0 -0 -0 -0 -5 -13 -5 -8 -1 -24 -21 -7 -43 -0 -82 -0 -0 -0 -0 -0 -0 -0 -0 -0 -0 -0 -0 -0 -0 -0 -0 -0 -0 -0 -0 -0 -0 -305 -292
-0 -0 -0 -0 -0 -0 -3 -0 -12 -0 -20 -27 -23 -0 -12 -9 -1 -24 -11 -0 -0 -68 -115 -0 -0 -0 -0 -0 -0 -0 -0 -0 -0 -0 -0 -0 -0 -0 -0 -0 -0 -0 -0 -320 -296
-0 -0 -0 -0 -1 -0 -0 -0 -0 -0 -0 -3 -0 -10 -0 -1 -1 -2 -31 -22 -0 -0 -54 -11 -0 -0 -0 -7 -12 -4 -9 -0 -0 -0 -0 -0 -0 -0 -0 -0 -0 -0 -263 -266 -338
-0 -0 -0 -0 -0 -0 -0 -0 -0 -0 -0 -3 -30 -3 -0 -0 -6 -2 -0 -8 -18 -26 -5 -20 -0 -0 -0 -0 -0 -38 -37 -0 -0 -0 -0 -0 -0 -0 -0 -0 -0 -261 -248 -295 -336
-0 -0 -0 -0 -0 -0 -0 -0 -0 -0 -1 -0 -0 -4 -1 -0 -0 -0 -3 -0 -0 -5 -12 -12 -0 -0 -0 -0 -19 -0 -0 -0 -0 -0 -0 -0 -0 -0 -0 -0 -0 -203 -291 -314 -322
-0 -0 -0 -0 -0 -0 -0 -0 -0 -0 -0 -0 -1 -0 -0 -1 -0 -0 -3 -0 -0 -0 -0 -0 -0 -3 -0 -31 -86 -0 -70 -0 -0 -0 -0 -0 -0 -0 -0 -0 -122 -194 -241 -258 -283
-0 -3 -1 -1 -0 -1 -0 -0 -1 -2 -0 -5 -3 -5 -0 -0 -5 -0 -0 -0 -0 -0 -0 -1 -1 -1 -0 -0 -39 -0 -28 -0 -0 -0 -0 -0 -0 -0 -0 -64 -100 -136 -207 -217 -257
Wind_Speed
30 30 31 32 33 34 35 35 36 37 37 38 38 38 39 41 44 38 44 34 29 32 28 28 26 23 22 25 22 21 31 37 29 27 26 17 27 34 23 23 25 19 16 9 9
29 30 31 32 33 34 35 36 36 36 37 38 39 40 40 42 42 46 43 36 34 30 27 28 29 26 28 28 26 30 35 38 30 27 33 32 25 31 39 36 29 30 19 20 23
30 31 32 33 34 34 35 36 36 37 37 37 38 39 39 40 39 34 25 29 32 33 32 29 31 29 35 34 31 33 45 34 39 35 37 41 40 25 40 44 36 31 32 30 26
31 32 33 34 34 34 34 34 35 36 37 37 38 38 39 32 39 23 21 29 32 31 32 31 30 34 38 41 39 48 43 39 43 43 43 45 42 45 39 39 32 31 31 33 36
33 34 34 35 36 36 37 37 36 35 34 34 35 36 32 34 38 38 42 39 34 25 28 31 34 34 41 38 38 52 49 42 40 41 46 45 47 45 50 44 39 37 39 37 32
34 36 37 38 38 39 40 40 40 39 36 35 33 31 32 44 30 34 37 36 33 30 27 29 31 32 38 40 40 41 41 48 46 48 46 46 51 48 49 45 46 40 44 43 42
36 37 38 39 41 42 43 44 43 40 37 35 32 30 33 41 28 35 40 38 36 35 33 30 30 29 33 41 42 45 53 53 57 45 45 42 58 52 34 36 45 46 48 48 47
37 38 40 41 42 43 44 44 43 41 36 30 27 30 40 38 34 38 37 38 32 31 32 32 28 31 36 33 36 38 42 58 57 45 40 34 72 46 34 40 49 49 53 56 57
38 38 40 41 41 40 40 42 43 38 29 24 26 28 40 29 25 27 25 30 31 32 29 29 28 33 32 37 41 40 52 52 56 34 35 31 74 46 42 45 49 48 48 48 46
38 39 41 41 41 40 40 41 37 27 27 25 25 34 27 28 26 37 28 21 22 27 34 32 32 38 37 37 49 41 40 46 52 36 34 41 72 57 52 54 56 56 55 41 38
40 41 42 42 41 38 37 37 41 33 40 37 44 43 47 50 52 44 29 29 27 28 33 32 39 46 40 39 44 39 43 49 41 34 34 41 48 53 46 44 42 43 43 27 28
41 42 43 43 40 37 30 37 40 36 45 40 35 37 38 38 48 47 37 32 32 35 29 33 48 44 43 40 44 47 49 50 39 35 33 37 48 48 50 51 40 39 25 36 28
42 42 42 41 35 30 30 35 34 33 34 31 33 29 36 30 36 39 33 34 37 40 37 40 35 36 44 43 47 47 47 48 45 42 47 41 53 50 48 47 44 41 44 38 41
41 41 37 38 26 31 29 29 26 23 23 26 29 26 32 25 23 22 29 34 36 40 37 42 41 42 40 43 45 53 44 42 44 45 52 34 62 54 54 55 53 46 36 47 47
37 36 33 27 23 29 26 24 23 20 27 33 28 28 27 29 28 21 25 26 36 40 32 42 32 33 41 42 37 49 42 40 40 41 42 39 37 54 34 47 45 44 44 45 36
31 29 29 23 22 20 20 24 20 25 27 28 32 35 32 29 27 22 19 20 27 30 40 39 33 39 39 39 38 34 37 40 45 38 46 33 24 50 44 43 43 43 39 37 35
26 20 21 18 24 23 24 25 24 25 25 27 42 40 32 32 30 25 22 20 20 24 32 31 36 36 35 40 38 37 35 37 39 41 41 26 28 43 26 26 33 37 36 29 27
14 22 19 14 16 20 27 26 27 22 22 21 26 37 30 30 28 29 25 22 19 18 26 30 32 29 23 29 36 34 35 36 40 37 42 44 35 45 39 43 44 41 38 34 30
28 22 17 17 16 21 28 30 23 24 21 22 35 26 29 28 26 27 25 19 18 15 25 26 32 23 26 30 28 34 43 36 41 41 35 39 51 50 43 42 42 40 37 24 5
24 22 18 16 18 25 27 26 21 20 21 25 20 21 32 27 26 26 22 19 22 21 19 24 34 30 29 28 30 32 30 36 38 42 42 39 41 47 34 33 32 32 16 6 2
22 22 20 17 21 25 27 23 20 20 23 16 11 14 25 27 25 24 20 23 22 26 25 24 28 33 31 31 39 36 36 34 34 35 42 41 43 34 36 36 39 34 8 5 10
24 24 18 18 23 23 25 23 20 16 20 15 5 3 10 23 21 21 22 23 27 24 24 23 28 36 37 38 37 34 38 35 39 42 39 43 57 37 37 31 36 21 5 8 10
25 18 20 19 25 26 23 22 19 13 12 11 7 2 15 15 14 24 23 26 22 21 20 21 23 30 32 27 31 34 33 32 37 41 51 42 44 31 31 26 20 4 7 7 12
23 23 19 22 23 24 24 22 23 18 8 6 2 7 19 17 7 16 28 24 26 22 26 20 24 28 32 31 30 36 36 34 34 43 48 53 42 44 38 26 17 16 8 11 16
23 21 21 21 23 22 20 20 21 20 16 5 12 3 9 9 5 7 31 33 30 31 19 10 26 28 31 35 36 41 43 39 41 41 44 43 45 40 38 33 32 13 11 13 12
25 23 19 17 17 21 21 22 20 18 15 10 4 12 6 7 3 21 26 34 35 31 24 17 28 26 30 31 37 41 38 40 41 42 43 45 51 36 35 35 22 16 15 12 11
21 18 18 17 18 21 20 21 18 18 14 4 9 16 6 8 9 20 26 30 34 27 28 24 22 25 27 25 22 32 37 36 38 38 39 47 45 36 30 25 17 22 16 14 14
Wind_Direction
319 318 315 312 311 309 309 308 306 303 302 300 299 297 296 292 285 282 269 277 276 273 274 272 273 275 267 270 268 268 268 265 269 274 274 298 284 281 309 313 312 322 322 330 325
328 326 323 320 316 312 308 306 306 306 304 299 297 296 296 294 286 275 278 275 272 270 271 266 267 267 264 266 267 261 263 265 272 274 275 279 294 284 284 294 288 310 318 314 318
333 331 328 325 321 319 316 312 309 306 304 303 300 298 296 296 287 284 287 278 276 266 266 268 265 266 262 261 261 266 263 269 271 277 279 280 282 292 282 280 290 293 297 309 312
336 333 330 328 326 325 323 321 318 313 308 305 304 302 298 294 277 286 299 292 286 274 261 261 262 260 262 258 262 265 268 270 273 275 278 277 284 278 281 282 292 291 299 299 299
338 336 332 329 327 325 324 321 320 318 315 312 308 305 305 289 278 279 280 286 286 281 256 255 254 257 260 263 265 263 266 271 275 276 275 279 276 277 274 279 287 292 293 298 304
336 334 331 328 325 322 320 318 315 314 314 313 311 311 300 284 295 288 283 281 277 278 268 256 263 259 266 265 262 269 272 270 272 272 274 274 274 275 274 279 284 291 290 293 295
331 328 325 323 321 319 317 317 316 316 313 312 310 308 296 290 299 293 283 279 274 272 268 266 261 263 266 267 267 269 268 269 264 271 273 277 271 270 277 285 285 288 287 290 292
337 335 334 334 333 329 324 319 316 318 319 318 316 307 293 299 295 289 283 277 273 273 268 267 268 267 262 271 272 270 269 264 264 267 272 279 259 275 281 284 282 286 286 286 284
344 344 341 337 336 336 335 330 321 324 330 330 321 312 298 307 298 300 295 285 270 268 268 269 266 261 263 262 264 264 263 264 268 268 273 266 250 278 281 282 282 288 291 289 291
344 345 345 344 342 342 338 338 340 349 344 334 321 310 306 299 296 299 298 291 283 270 264 261 260 256 255 252 254 260 259 266 269 274 270 269 261 274 277 277 279 283 279 290 294
344 345 346 347 348 349 351 352 347 337 332 320 307 298 293 284 283 279 285 293 279 274 263 256 252 247 244 254 262 266 267 267 275 277 270 270 275 277 279 280 283 285 287 289 291
347 347 346 345 349 352 5 358 353 346 328 327 316 309 303 295 278 271 278 277 273 268 268 256 251 255 259 261 259 260 264 265 275 277 276 278 275 278 275 274 282 286 279 290 291
344 348 350 351 0 11 7 3 4 4 349 347 331 328 320 308 284 267 269 272 267 263 263 258 259 257 257 258 257 259 260 264 269 276 272 281 276 276 274 274 276 283 283 291 254
348 353 0 0 19 12 11 9 11 17 10 4 342 355 338 334 303 295 271 267 265 261 261 261 262 260 260 256 256 257 261 266 268 269 269 278 272 274 267 252 261 275 285 253 272
359 1 4 14 17 13 13 14 15 29 352 335 318 346 308 333 312 307 292 284 258 256 258 254 262 258 255 258 259 259 261 263 264 267 270 269 278 245 280 245 243 243 240 243 240
5 6 6 21 20 17 12 11 28 13 1 338 335 320 322 320 310 298 308 307 289 267 254 259 263 260 260 261 261 265 260 258 258 264 262 265 266 250 243 238 246 253 265 247 241
5 5 10 21 19 18 14 16 15 14 8 357 312 315 314 322 318 307 300 293 282 267 256 261 262 262 262 258 258 255 254 251 253 251 255 262 264 218 246 245 251 253 244 229 233
342 7 19 23 20 21 18 21 17 15 11 4 297 302 314 316 315 314 294 289 305 272 264 261 259 257 263 257 253 249 245 244 248 252 256 251 262 242 229 241 251 244 241 246 243
7 15 24 30 33 28 22 20 19 12 10 1 326 354 334 314 305 311 302 289 303 321 270 268 261 269 269 267 261 249 244 248 255 256 258 253 251 254 246 247 254 247 261 299 347
17 22 30 37 39 24 24 21 22 14 9 11 19 7 317 308 305 305 300 298 296 304 306 286 267 268 271 271 260 250 254 241 244 245 249 252 252 242 252 257 266 271 298 312 70
31 28 31 44 29 23 20 22 15 15 17 22 27 26 296 306 286 297 298 299 310 298 300 293 275 267 276 261 250 248 245 246 247 249 244 250 249 251 240 257 264 275 287 158 133
28 26 39 35 19 24 18 15 16 17 23 38 49 30 38 293 280 283 296 303 297 298 287 294 282 267 268 262 254 249 247 246 242 240 247 249 240 247 252 269 275 278 191 143 127
23 34 36 33 20 16 19 15 15 18 13 35 48 116 256 245 272 282 298 294 292 307 304 304 290 277 275 262 248 246 242 244 245 243 238 243 238 243 256 274 282 186 169 148 125
27 24 32 36 24 20 17 23 20 27 31 43 138 85 283 262 225 231 271 286 294 315 277 310 287 275 270 257 261 245 242 245 243 237 235 235 241 233 239 261 292 250 171 143 131
31 28 26 18 20 19 19 24 18 27 39 67 56 248 262 24 294 15 296 288 290 276 308 348 289 269 271 261 255 246 242 240 238 237 235 236 231 235 240 263 267 233 163 145 136
26 23 24 9 22 19 25 25 17 23 28 43 16 276 265 274 334 261 257 263 267 273 290 304 268 262 273 266 254 240 239 238 239 239 239 236 230 248 259 264 274 207 183 162 147
29 33 25 23 22 21 26 17 16 21 40 6 278 276 288 285 308 267 252 245 231 216 220 210 226 275 267 283 250 239 237 237 235 234 235 230 234 252 267 263 247 227 187 166 145